Location: Seattle
(47.6064°N, 122.3308°W)
Time: 03:44:54
(UTC-08:00)

S-56A Canister/Altair - Pass Details

Date: 26 November 2020
Orbit: 633 x 2499 km, 38.9° (Epoch: 23 January)

Event Time Altitude Azimuth Distance (km) Brightness Sun altitude
Rises 22:48:01 0° 259° (WSW) 4,663 11.7 -60.2°
Enters shadow 22:48:01 - 259° (WSW) 4,659 11.7 -60.2°
Reaches altitude 10° 22:51:47 10° 253° (WSW) 3,363 - -60.5°
Maximum altitude 22:59:00 39° 188° (S) 1,437 - -61.1°
Drops below altitude 10° 23:04:07 10° 119° (ESE) 2,369 - -61.5°
Sets 23:06:21 0° 111° (ESE) 3,157 - -61.7°
